Time,TemperatureF,DewpointF,PressureIn,WindDirection,WindDirectionDegrees,WindSpeedMPH,WindSpeedGustMPH,Humidity,HourlyPrecipIn,Conditions,Clouds,dailyrainin,SolarRadiationWatts/m^2,SoftwareType,DateUTC
2013-01-14 00:02:00,-11.0,-18.0,-100.00,SSW,205,0.0,3.0,70,0.00,,,0.00,0.000000,,2013-01-14 07:02:00,
2013-01-14 00:12:00,-11.0,-18.0,-100.00,SSW,205,0.0,3.0,70,0.00,,,0.00,0.000000,,2013-01-14 07:12:00,
2013-01-14 00:22:00,-11.0,-18.0,-100.00,SSW,205,0.0,3.0,70,0.00,,,0.00,0.000000,,2013-01-14 07:22:00,
2013-01-14 00:32:00,-11.0,-18.0,-100.00,SSW,205,0.0,3.0,70,0.00,,,0.00,0.000000,,2013-01-14 07:32:00,
2013-01-14 00:53:00,-8.0,-14.0,-100.00,WSW,244,0.0,4.0,76,0.00,,,0.00,0.000000,,2013-01-14 07:53:00,
2013-01-14 01:02:00,-8.0,-14.0,-100.00,WSW,244,0.0,4.0,76,0.00,,,0.00,0.000000,,2013-01-14 08:02:00,
2013-01-14 01:12:00,-8.0,-14.0,-100.00,WSW,244,0.0,4.0,76,0.00,,,0.00,0.000000,,2013-01-14 08:12:00,
2013-01-14 01:22:00,-8.0,-14.0,-100.00,WSW,244,0.0,4.0,76,0.00,,,0.00,0.000000,,2013-01-14 08:22:00,
2013-01-14 01:32:00,-8.0,-14.0,-100.00,WSW,244,0.0,4.0,76,0.00,,,0.00,0.000000,,2013-01-14 08:32:00,
2013-01-14 01:53:00,-9.0,-16.0,-100.00,SW,227,0.0,2.0,70,0.00,,,0.00,0.000000,,2013-01-14 08:53:00,
2013-01-14 02:02:00,-9.0,-16.0,-100.00,SW,227,0.0,2.0,70,0.00,,,0.00,0.000000,,2013-01-14 09:02:00,
2013-01-14 02:12:00,-9.0,-16.0,-100.00,SW,227,0.0,2.0,70,0.00,,,0.00,0.000000,,2013-01-14 09:12:00,
2013-01-14 02:22:00,-9.0,-16.0,-100.00,SW,227,0.0,2.0,70,0.00,,,0.00,0.000000,,2013-01-14 09:22:00,
2013-01-14 02:33:00,-9.0,-16.0,-100.00,SW,227,0.0,2.0,70,0.00,,,0.00,0.000000,,2013-01-14 09:33:00,
2013-01-14 02:53:00,-14.0,-22.0,-100.00,East,99,0.0,2.0,65,0.00,,,0.00,0.000000,,2013-01-14 09:53:00,
2013-01-14 03:02:00,-14.0,-22.0,-100.00,East,99,0.0,2.0,65,0.00,,,0.00,0.000000,,2013-01-14 10:02:00,
2013-01-14 03:12:00,-14.0,-22.0,-100.00,East,99,0.0,2.0,65,0.00,,,0.00,0.000000,,2013-01-14 10:12:00,
2013-01-14 03:22:00,-14.0,-22.0,-100.00,East,99,0.0,2.0,65,0.00,,,0.00,0.000000,,2013-01-14 10:22:00,
2013-01-14 03:32:00,-14.0,-22.0,-100.00,East,99,0.0,2.0,65,0.00,,,0.00,0.000000,,2013-01-14 10:32:00,
2013-01-14 03:53:00,-19.0,-28.0,-100.00,NE,54,0.0,0.0,61,0.00,,,0.00,0.000000,,2013-01-14 10:53:00,
2013-01-14 04:02:00,-19.0,-28.0,-100.00,NE,54,0.0,0.0,61,0.00,,,0.00,0.000000,,2013-01-14 11:02:00,
2013-01-14 04:53:00,-23.0,-32.0,-100.00,SSE,166,0.0,2.0,61,0.00,,,0.00,0.000000,,2013-01-14 11:53:00,
2013-01-14 05:02:00,-23.0,-32.0,-100.00,SSE,166,0.0,2.0,61,0.00,,,0.00,0.000000,,2013-01-14 12:02:00,
2013-01-14 05:33:00,-23.0,-32.0,-100.00,SSE,166,0.0,2.0,61,0.00,,,0.00,0.000000,,2013-01-14 12:33:00,
2013-01-14 05:53:00,-25.0,-35.0,-100.00,SSE,154,0.0,2.0,58,0.00,,,0.00,0.000000,,2013-01-14 12:53:00,
2013-01-14 06:03:00,-25.0,-35.0,-100.00,SSE,154,0.0,2.0,58,0.00,,,0.00,0.000000,,2013-01-14 13:03:00,
2013-01-14 06:53:00,-28.0,-38.0,-100.00,SW,214,0.0,0.0,56,0.00,,,0.00,0.000000,,2013-01-14 13:53:00,
2013-01-14 07:02:00,-28.0,-38.0,-100.00,SW,214,0.0,0.0,56,0.00,,,0.00,0.000000,,2013-01-14 14:02:00,
2013-01-14 08:03:00,-27.0,-36.0,-100.00,South,170,0.0,0.0,60,0.00,,,0.00,0.000000,,2013-01-14 15:03:00,
2013-01-14 08:12:00,-27.0,-36.0,-100.00,South,170,0.0,0.0,60,0.00,,,0.00,0.000000,,2013-01-14 15:12:00,
2013-01-14 08:23:00,-27.0,-36.0,-100.00,South,170,0.0,0.0,60,0.00,,,0.00,0.000000,,2013-01-14 15:23:00,
2013-01-14 08:33:00,-27.0,-36.0,-100.00,South,170,0.0,0.0,60,0.00,,,0.00,0.000000,,2013-01-14 15:33:00,
2013-01-14 09:02:00,-21.0,-29.0,-100.00,South,191,0.0,1.0,64,0.00,,,-99.99,2.000000,,2013-01-14 16:02:00,
2013-01-14 09:12:00,-21.0,-29.0,-100.00,South,191,0.0,1.0,64,0.00,,,-99.99,2.000000,,2013-01-14 16:12:00,
2013-01-14 09:23:00,-21.0,-29.0,-100.00,South,191,0.0,1.0,64,0.00,,,-99.99,2.000000,,2013-01-14 16:23:00,
2013-01-14 09:33:00,-21.0,-29.0,-100.00,South,191,0.0,1.0,64,0.00,,,-99.99,2.000000,,2013-01-14 16:33:00,
2013-01-14 10:03:00,-11.0,-20.0,-100.00,WSW,239,0.0,2.0,64,0.00,,,0.00,16.000000,,2013-01-14 17:03:00,
2013-01-14 10:12:00,-11.0,-20.0,-100.00,WSW,239,0.0,2.0,64,0.00,,,0.00,16.000000,,2013-01-14 17:12:00,
2013-01-14 10:22:00,-11.0,-20.0,-100.00,WSW,239,0.0,2.0,64,0.00,,,0.00,16.000000,,2013-01-14 17:22:00,
2013-01-14 10:33:00,-11.0,-20.0,-100.00,WSW,239,0.0,2.0,64,0.00,,,0.00,16.000000,,2013-01-14 17:33:00,
2013-01-14 10:53:00,-7.0,-17.0,-100.00,NW,308,1.0,2.0,61,0.00,,,0.00,25.000000,,2013-01-14 17:53:00,
2013-01-14 11:03:00,-7.0,-17.0,-100.00,NW,308,1.0,2.0,61,0.00,,,0.00,25.000000,,2013-01-14 18:03:00,
2013-01-14 11:12:00,-7.0,-17.0,-100.00,NW,308,1.0,2.0,61,0.00,,,0.00,25.000000,,2013-01-14 18:12:00,
2013-01-14 11:22:00,-7.0,-17.0,-100.00,NW,308,1.0,2.0,61,0.00,,,0.00,25.000000,,2013-01-14 18:22:00,
2013-01-14 11:33:00,-7.0,-17.0,-100.00,NW,308,1.0,2.0,61,0.00,,,0.00,25.000000,,2013-01-14 18:33:00,
2013-01-14 12:03:00,-3.0,-14.0,-100.00,North,1,2.0,4.0,58,0.00,,,0.00,29.000000,,2013-01-14 19:03:00,
2013-01-14 12:12:00,-3.0,-14.0,-100.00,North,1,2.0,4.0,58,0.00,,,0.00,29.000000,,2013-01-14 19:12:00,
2013-01-14 12:22:00,-3.0,-14.0,-100.00,North,1,2.0,4.0,58,0.00,,,0.00,29.000000,,2013-01-14 19:22:00,
2013-01-14 12:32:00,-3.0,-14.0,-100.00,North,1,2.0,4.0,58,0.00,,,0.00,29.000000,,2013-01-14 19:32:00,
2013-01-14 13:03:00,1.0,-10.0,-100.00,WSW,238,2.0,10.0,60,0.00,,,0.00,33.000000,,2013-01-14 20:03:00,
2013-01-14 13:12:00,1.0,-10.0,-100.00,WSW,238,2.0,10.0,60,0.00,,,0.00,33.000000,,2013-01-14 20:12:00,
2013-01-14 13:22:00,1.0,-10.0,-100.00,WSW,238,2.0,10.0,60,0.00,,,0.00,33.000000,,2013-01-14 20:22:00,
2013-01-14 13:33:00,1.0,-10.0,-100.00,WSW,238,2.0,10.0,60,0.00,,,0.00,33.000000,,2013-01-14 20:33:00,
2013-01-14 13:53:00,1.0,-8.0,-100.00,SW,223,4.0,16.0,66,0.00,,,0.00,36.000000,,2013-01-14 20:53:00,
2013-01-14 14:02:00,1.0,-8.0,-100.00,SW,223,4.0,16.0,66,0.00,,,0.00,36.000000,,2013-01-14 21:02:00,
2013-01-14 14:12:00,1.0,-8.0,-100.00,SW,223,4.0,16.0,66,0.00,,,0.00,36.000000,,2013-01-14 21:12:00,
2013-01-14 14:22:00,1.0,-8.0,-100.00,SW,223,4.0,16.0,66,0.00,,,0.00,36.000000,,2013-01-14 21:22:00,
2013-01-14 14:32:00,1.0,-8.0,-100.00,SW,223,4.0,16.0,66,0.00,,,0.00,36.000000,,2013-01-14 21:32:00,
2013-01-14 15:02:00,0.0,-9.0,-100.00,WSW,237,5.0,15.0,64,0.00,,,0.00,28.000000,,2013-01-14 22:02:00,
2013-01-14 15:12:00,0.0,-9.0,-100.00,WSW,237,5.0,15.0,64,0.00,,,0.00,28.000000,,2013-01-14 22:12:00,
2013-01-14 15:23:00,0.0,-9.0,-100.00,WSW,237,5.0,15.0,64,0.00,,,0.00,28.000000,,2013-01-14 22:23:00,
2013-01-14 15:32:00,0.0,-9.0,-100.00,WSW,237,5.0,15.0,64,0.00,,,0.00,28.000000,,2013-01-14 22:32:00,
2013-01-14 16:02:00,0.0,-9.0,-100.00,WSW,244,4.0,11.0,66,0.00,,,0.00,19.000000,,2013-01-14 23:02:00,
2013-01-14 16:12:00,0.0,-9.0,-100.00,WSW,244,4.0,11.0,66,0.00,,,0.00,19.000000,,2013-01-14 23:12:00,
2013-01-14 16:22:00,0.0,-9.0,-100.00,WSW,244,4.0,11.0,66,0.00,,,0.00,19.000000,,2013-01-14 23:22:00,
2013-01-14 16:32:00,0.0,-9.0,-100.00,WSW,244,4.0,11.0,66,0.00,,,0.00,19.000000,,2013-01-14 23:32:00,
2013-01-14 17:02:00,-2.0,-11.0,-100.00,SW,225,4.0,12.0,66,0.00,,,0.00,10.000000,,2013-01-15 00:02:00,
2013-01-14 17:12:00,-2.0,-11.0,-100.00,SW,225,4.0,12.0,66,0.00,,,0.00,10.000000,,2013-01-15 00:12:00,
2013-01-14 17:22:00,-2.0,-11.0,-100.00,SW,225,4.0,12.0,66,0.00,,,0.00,10.000000,,2013-01-15 00:22:00,
2013-01-14 17:32:00,-2.0,-11.0,-100.00,SW,225,4.0,12.0,66,0.00,,,0.00,10.000000,,2013-01-15 00:32:00,
2013-01-14 17:53:00,-4.0,-12.0,-100.00,SW,234,4.0,12.0,69,0.00,,,0.00,0.000000,,2013-01-15 00:53:00,
2013-01-14 18:02:00,-4.0,-12.0,-100.00,SW,234,4.0,12.0,69,0.00,,,0.00,0.000000,,2013-01-15 01:02:00,
2013-01-14 18:12:00,-4.0,-12.0,-100.00,SW,234,4.0,12.0,69,0.00,,,0.00,0.000000,,2013-01-15 01:12:00,
2013-01-14 18:22:00,-4.0,-12.0,-100.00,SW,234,4.0,12.0,69,0.00,,,0.00,0.000000,,2013-01-15 01:22:00,
2013-01-14 18:32:00,-4.0,-12.0,-100.00,SW,234,4.0,12.0,69,0.00,,,0.00,0.000000,,2013-01-15 01:32:00,
2013-01-14 18:52:00,-4.0,-12.0,-100.00,SW,235,4.0,9.0,69,0.00,,,0.00,0.000000,,2013-01-15 01:52:00,
2013-01-14 19:02:00,-4.0,-12.0,-100.00,SW,235,4.0,9.0,69,0.00,,,0.00,0.000000,,2013-01-15 02:02:00,
2013-01-14 19:12:00,-4.0,-12.0,-100.00,SW,235,4.0,9.0,69,0.00,,,0.00,0.000000,,2013-01-15 02:12:00,
2013-01-14 19:22:00,-4.0,-12.0,-100.00,SW,235,4.0,9.0,69,0.00,,,0.00,0.000000,,2013-01-15 02:22:00,
2013-01-14 19:32:00,-4.0,-12.0,-100.00,SW,235,4.0,9.0,69,0.00,,,0.00,0.000000,,2013-01-15 02:32:00,
2013-01-14 20:02:00,-5.0,-13.0,-100.00,WSW,237,3.0,7.0,69,0.00,,,0.00,0.000000,,2013-01-15 03:02:00,
2013-01-14 20:12:00,-5.0,-13.0,-100.00,WSW,237,3.0,7.0,69,0.00,,,0.00,0.000000,,2013-01-15 03:12:00,
2013-01-14 20:22:00,-5.0,-13.0,-100.00,WSW,237,3.0,7.0,69,0.00,,,0.00,0.000000,,2013-01-15 03:22:00,
2013-01-14 20:32:00,-5.0,-13.0,-100.00,WSW,237,3.0,7.0,69,0.00,,,0.00,0.000000,,2013-01-15 03:32:00,
2013-01-14 20:53:00,-4.0,-12.0,-100.00,WSW,237,4.0,10.0,69,0.00,,,0.00,0.000000,,2013-01-15 03:53:00,
2013-01-14 21:02:00,-4.0,-12.0,-100.00,WSW,237,4.0,10.0,69,0.00,,,0.00,0.000000,,2013-01-15 04:02:00,
2013-01-14 21:12:00,-4.0,-12.0,-100.00,WSW,237,4.0,10.0,69,0.00,,,0.00,0.000000,,2013-01-15 04:12:00,
2013-01-14 21:22:00,-4.0,-12.0,-100.00,WSW,237,4.0,10.0,69,0.00,,,0.00,0.000000,,2013-01-15 04:22:00,
2013-01-14 21:32:00,-4.0,-12.0,-100.00,WSW,237,4.0,10.0,69,0.00,,,0.00,0.000000,,2013-01-15 04:32:00,
2013-01-14 22:03:00,-4.0,-11.0,-100.00,WSW,239,2.0,7.0,70,0.00,,,0.00,0.000000,,2013-01-15 05:03:00,
2013-01-14 22:12:00,-4.0,-11.0,-100.00,WSW,239,2.0,7.0,70,0.00,,,0.00,0.000000,,2013-01-15 05:12:00,
2013-01-14 22:22:00,-4.0,-11.0,-100.00,WSW,239,2.0,7.0,70,0.00,,,0.00,0.000000,,2013-01-15 05:22:00,
2013-01-14 22:32:00,-4.0,-11.0,-100.00,WSW,239,2.0,7.0,70,0.00,,,0.00,0.000000,,2013-01-15 05:32:00,
2013-01-14 23:02:00,-4.0,-11.0,-100.00,SW,224,1.0,5.0,71,0.00,,,0.00,0.000000,,2013-01-15 06:02:00,
2013-01-14 23:12:00,-4.0,-11.0,-100.00,SW,224,1.0,5.0,71,0.00,,,0.00,0.000000,,2013-01-15 06:12:00,
2013-01-14 23:22:00,-4.0,-11.0,-100.00,SW,224,1.0,5.0,71,0.00,,,0.00,0.000000,,2013-01-15 06:22:00,
2013-01-14 23:32:00,-4.0,-11.0,-100.00,SW,224,1.0,5.0,71,0.00,,,0.00,0.000000,,2013-01-15 06:32:00,